Plymouth, NH

2:27 PM EST on December 03, 2016 (GMT -0500)
Plymouth

Weather History for K1P1 - October, 2012

Change the Weather History Date:

Friday, October 5, 2012

  Actual Average (KLCI) Record (KLCI)
Temperature  
Mean Temperature 64 °F -  
Max Temperature 76 °F 60 °F 82 °F (2007)
Min Temperature 53 °F 42 °F 26 °F (1996)
Growing Degree Days 14 (Base 50)    
Moisture  
Dew Point 56 °F    
Average Humidity 82    
Maximum Humidity 98    
Minimum Humidity 40    
Precipitation  
Precipitation 0.00 in - - ()
Sea Level Pressure  
Sea Level Pressure 29.96 in    
Wind  
Wind Speed 2 mph (West)    
Max Wind Speed 9 mph    
Max Gust Speed -    
Visibility 7 miles    
Events Fog    
Averages and records for this station are not official NWS values.
T = Trace of Precipitation, MM = Missing Value Source: NWS Daily Summary

Daily Weather History Graph

Daily Weather History Graph

Search for Another Location

Airport or City:

Trip Planner

Search our weather history database for the weather conditions in past years. The results will help you decide how hot, cold, wet, or windy it might be!

Date:

Astronomy

Oct. 05, 2012 Rise Set
Actual Time 6:49 AM EDT 6:19 PM EDT
Civil Twilight 6:21 AM EDT 6:48 PM EDT
Nautical Twilight 5:47 AM EDT 7:21 PM EDT
Astronomical Twilight 5:14 AM EDT 7:55 PM EDT
Moon 9:31 PM EDT (10/5) 12:04 PM EDT (10/5)
Length of Visible Light 12h 27m
Length of Day
11h 30m
Waning Gibbous, 74% of the Moon is Illuminated
Oct 5
Waning Gibbous
Oct 8
Last Quarter
Oct 15
New
Oct 21
First Quarter
Oct 29
Full

Hourly Weather History & Observations

Time (EDT) Temp. Dew Point Humidity Pressure Visibility Wind Dir Wind Speed Gust Speed Precip Events Conditions
12:15 AM 59.5 °F 58.8 °F 97% 30.02 in 5.0 mi Calm Calm - N/A   Overcast
12:35 AM 59.4 °F 58.8 °F 98% 30.01 in 10.0 mi WNW 5.8 mph - N/A   Overcast
12:55 AM 59.4 °F 58.8 °F 98% 30.01 in 10.0 mi NW 3.5 mph - N/A   Overcast
1:15 AM 59.2 °F 58.3 °F 97% 30.02 in 7.0 mi West 4.6 mph - N/A   Overcast
1:35 AM 59.0 °F 58.1 °F 97% 30.01 in 5.0 mi WNW 3.5 mph - N/A   Overcast
2:15 AM 58.5 °F 57.6 °F 97% 30.01 in 1.2 mi Calm Calm - N/A   Overcast
2:35 AM 58.3 °F 57.6 °F 97% 30.00 in 1.0 mi Calm Calm - N/A   Overcast
2:55 AM 58.1 °F 57.4 °F 97% 30.00 in 0.8 mi Calm Calm - N/A   Overcast
3:15 AM 58.1 °F 57.4 °F 97% 29.99 in 1.2 mi WNW 3.5 mph - N/A   Overcast
3:35 AM 58.1 °F 57.2 °F 97% 29.99 in 2.0 mi Calm Calm - N/A   Overcast
3:55 AM 57.7 °F 57.2 °F 98% 29.99 in 4.0 mi West 3.5 mph - N/A   Overcast
4:15 AM 57.6 °F 57.0 °F 98% 30.00 in 5.0 mi Calm Calm - N/A   Overcast
4:35 AM 57.4 °F 56.7 °F 97% 30.00 in 10.0 mi Calm Calm - N/A   Overcast
4:55 AM 57.2 °F 56.5 °F 97% 30.00 in 5.0 mi Calm Calm - N/A   Overcast
5:15 AM 57.2 °F 56.5 °F 97% 30.00 in 5.0 mi Calm Calm - N/A   Overcast
5:35 AM 57.2 °F 56.3 °F 97% 30.01 in 10.0 mi Calm Calm - N/A   Overcast
5:55 AM 56.8 °F 56.3 °F 98% 30.01 in 10.0 mi NW 3.5 mph - N/A   Overcast
6:15 AM 55.8 °F 54.9 °F 97% 30.01 in 5.0 mi Calm Calm - N/A   Scattered Clouds
6:35 AM 54.7 °F 53.8 °F 97% 30.01 in 1.0 mi Calm Calm - N/A   Overcast
6:55 AM 54.7 °F 54.0 °F 97% 30.01 in 0.8 mi Calm Calm - N/A   Overcast
7:15 AM 53.8 °F 53.1 °F 97% 30.01 in 0.2 mi Calm Calm - N/A Fog Fog
7:35 AM 54.5 °F 53.8 °F 97% 30.01 in 1.0 mi Calm Calm - N/A   Overcast
7:55 AM 55.4 °F 54.7 °F 97% 30.00 in 3.0 mi Calm Calm - N/A   Overcast
8:15 AM 56.3 °F 55.8 °F 98% 30.01 in 5.0 mi WNW 5.8 mph - N/A   Overcast
8:35 AM 56.7 °F 56.1 °F 98% 30.01 in 4.0 mi WNW 6.9 mph - N/A   Overcast
8:55 AM 57.4 °F 56.7 °F 97% 30.01 in 7.0 mi West 5.8 mph - N/A   Mostly Cloudy
9:15 AM 58.3 °F 56.3 °F 93% 30.01 in 7.0 mi WNW 9.2 mph - N/A   Scattered Clouds
9:35 AM 59.4 °F 56.3 °F 90% 30.01 in 10.0 mi West 5.8 mph - N/A   Clear
9:55 AM 60.8 °F 57.0 °F 87% 30.00 in 10.0 mi WNW 5.8 mph - N/A   Clear
10:15 AM 62.1 °F 57.4 °F 85% 30.00 in 10.0 mi WNW 4.6 mph - N/A   Clear
10:55 AM 64.8 °F 57.2 °F 76% 29.99 in 10.0 mi Calm Calm - N/A   Clear
11:15 AM 65.8 °F 57.4 °F 74% 29.99 in 10.0 mi WNW 3.5 mph - N/A   Clear
11:35 AM 66.9 °F 58.1 °F 73% 29.99 in 10.0 mi Calm Calm - N/A   Clear
11:55 AM 69.4 °F 56.8 °F 64% 29.98 in 10.0 mi West 5.8 mph - N/A   Clear
12:15 PM 70.3 °F 57.4 °F 63% 29.97 in 10.0 mi SW 5.8 mph - N/A   Clear
12:35 PM 71.6 °F 56.1 °F 58% 29.96 in 10.0 mi WNW 5.8 mph - N/A   Clear
12:55 PM 72.7 °F 55.2 °F 54% 29.96 in 10.0 mi NW 4.6 mph - N/A   Clear
1:15 PM 73.6 °F 52.9 °F 48% 29.95 in 10.0 mi WNW 6.9 mph - N/A   Clear
1:35 PM 74.1 °F 54.5 °F 50% 29.94 in 10.0 mi WNW 5.8 mph - N/A   Clear
1:55 PM 74.8 °F 50.9 °F 43% 29.93 in 10.0 mi West 4.6 mph - N/A   Clear
2:15 PM 75.2 °F 50.9 °F 42% 29.92 in 10.0 mi West 5.8 mph - N/A   Clear
2:35 PM 75.2 °F 50.0 °F 41% 29.91 in 10.0 mi West 4.6 mph - N/A   Scattered Clouds
3:15 PM 76.3 °F 51.6 °F 42% 29.90 in 10.0 mi South 3.5 mph - N/A   Clear
3:35 PM 75.9 °F 51.6 °F 43% 29.90 in 10.0 mi WSW 4.6 mph - N/A   Clear
3:55 PM 76.1 °F 50.4 °F 40% 29.89 in 10.0 mi Calm Calm - N/A   Scattered Clouds
4:15 PM 75.9 °F 52.0 °F 43% 29.89 in 10.0 mi West 6.9 mph - N/A   Mostly Cloudy
4:35 PM 76.3 °F 52.2 °F 43% 29.89 in 10.0 mi Calm Calm - N/A   Mostly Cloudy
4:55 PM 76.3 °F 51.1 °F 41% 29.89 in 10.0 mi Calm Calm - N/A   Mostly Cloudy
5:15 PM 73.9 °F 54.0 °F 50% 29.89 in 10.0 mi SW 5.8 mph - N/A   Mostly Cloudy
5:35 PM 72.9 °F 55.2 °F 54% 29.89 in 10.0 mi SSW 3.5 mph - N/A   Mostly Cloudy
5:55 PM 70.7 °F 55.8 °F 59% 29.89 in 10.0 mi Calm Calm - N/A   Scattered Clouds
6:15 PM 66.9 °F 57.7 °F 72% 29.89 in 10.0 mi Calm Calm - N/A   Clear
6:35 PM 64.9 °F 58.8 °F 81% 29.90 in 10.0 mi Calm Calm - N/A   Clear
6:55 PM 61.9 °F 59.0 °F 90% 29.90 in 10.0 mi Calm Calm - N/A   Scattered Clouds
7:15 PM 61.7 °F 58.1 °F 88% 29.91 in 10.0 mi Calm Calm - N/A   Mostly Cloudy
7:35 PM 61.7 °F 58.1 °F 88% 29.91 in 10.0 mi Calm Calm - N/A   Overcast
7:55 PM 60.8 °F 58.5 °F 92% 29.91 in 7.0 mi Calm Calm - N/A   Overcast
8:15 PM 60.3 °F 58.1 °F 93% 29.91 in 10.0 mi Calm Calm - N/A   Scattered Clouds
8:35 PM 58.6 °F 56.8 °F 94% 29.90 in 7.0 mi Calm Calm - N/A   Clear
8:55 PM 58.1 °F 56.8 °F 96% 29.90 in 5.0 mi Calm Calm - N/A   Clear
9:15 PM 56.5 °F 55.4 °F 96% 29.90 in 4.0 mi Calm Calm - N/A   Clear
9:35 PM 56.8 °F 55.9 °F 97% 29.90 in 3.0 mi Calm Calm - N/A   Clear
9:55 PM 55.9 °F 55.0 °F 97% 29.91 in 1.2 mi Calm Calm - N/A   Mist
10:15 PM 55.8 °F 55.0 °F 97% 29.90 in 2.5 mi Calm Calm - N/A   Clear
10:35 PM 55.8 °F 55.2 °F 98% 29.90 in 2.0 mi Calm Calm - N/A   Clear
10:55 PM 55.6 °F 54.9 °F 97% 29.91 in 2.0 mi Calm Calm - N/A   Clear
11:15 PM 56.1 °F 55.4 °F 97% 29.90 in 3.0 mi Calm Calm - N/A   Scattered Clouds
11:35 PM 56.3 °F 55.6 °F 97% 29.89 in 4.0 mi Calm Calm - N/A   Scattered Clouds